Location: Cuzcurrita-R�o Tir�n
(42.5415°N, 2.9642°W)
Time: 06:51:12
(UTC+00:00)

STARLINK-1053 - Pass Details

Date: 27 February 2020
Orbit: 548 x 551 km, 53.0° (Epoch: 31 March)

Event Time Altitude Azimuth Distance (km) Brightness Sun altitude
Rises 19:11:22 0° 247° (WSW) 2,707 8.4 -14.2°
Reaches altitude 10° 19:13:39 10° 252° (WSW) 1,816 7.4 -14.6°
Maximum altitude 19:17:41 52° 329° (NNW) 689 4.3 -15.4°
Enters shadow 19:20:41 17° 42° (NE) 1,431 5.4 -15.9°
